Location: Capvern
(43.1036°N, 0.3160°E)
Time: 23:14:37
(UTC+00:00)

Meteor 1-24 Rocket - Pass Details

Date: 16 October 2021
Orbit: 790 x 927 km, 81.3° (Epoch: 04 December)

Event Time Altitude Azimuth Distance (km) Brightness Sun altitude
Rises 17:41:48 0° 347° (NNW) 3,428 7.0 -5.8°
Reaches altitude 10° 17:44:13 10° 345° (NNW) 2,509 6.3 -6.2°
Maximum altitude 17:49:53 68° 263° (W) 949 4.3 -7.3°
Drops below altitude 10° 17:55:43 10° 182° (S) 2,578 6.3 -8.3°
Sets 17:58:12 0° 180° (S) 3,529 7.0 -8.8°
